Terminal Aerodrome Forecast
Issued by NWS

Home | Current Version | Previous Version | Text Only | Print | Product List | Glossary On
Versions: 1 2 3 4 5 6 7 8 9 10 11 12 13 14 15 16
000
FTUS44 KMAF 250500
TAFFST
TAF
KFST 250520Z 2506/2606 23012KT P6SM FEW250
     FM251200 27010KT P6SM FEW200
     FM251800 03008KT P6SM FEW200=

USA.gov is the U.S. government's official web portal to all federal, state and local government web resources and services.